Tracking 18844 objects as of 21-Nov-2017
HD Live streaming from Space Station
objects crossing your sky now

PALAPA 2

Track PALAPA 2 now!
PALAPA 2 is classified as:


NORAD ID: 9862
Int'l Code: 1977-018A
Perigee: 35,842.3 km
Apogee: 35,883.9 km
Inclination: 14.1 °
Period: 1,439.6 minutes
Semi major axis: 42234 km
RCS: 5.6864 m2 (large)
Launch date: March 10, 1977
Source: Indonesia (INDO)
Launch site: AIR FORCE EASTERN TEST RANGE (AFETR)
aabbcc
Your satellite tracking list
Your tracking list is empty




NASA's NSSDC Master Catalog

Two Line Element Set (TLE):
1 09862U 77018A   17325.06207372 -.00000063  00000-0  00000+0 0  9992
2 09862  14.0543 338.9012 0004927 320.2023 219.6446  1.00024885111771
Source of the keplerian elements: AFSPC